| time (UTC) | temp C | wind direction | speed KPH | gust KPH | rain 1hr cm | rain 24hr cm | rain mn cm | humidity % | barometer mb |
| 20260506135506 | 12 | 233 | 3.2 | 12.9 | 0.00 | 0.25 | 0.00 | 78 | 1014.7 |
| 20260506135009 | 12 | 40 | 1.6 | 4.8 | 0.00 | 0.25 | 0.00 | 78 | 1014.5 |
| 20260506134514 | 12 | 273 | 1.6 | 6.4 | 0.00 | 0.25 | 0.00 | 78 | 1014.4 |
| 20260506134017 | 12 | 57 | 3.2 | 12.9 | 0.00 | 0.25 | 0.00 | 79 | 1014.4 |
| 20260506133508 | 12 | 51 | 3.2 | 12.9 | 0.00 | 0.25 | 0.00 | 79 | 1014.5 |
| 20260506133021 | 12 | 62 | 1.6 | 6.4 | 0.00 | 0.25 | 0.00 | 79 | 1014.5 |
| 20260506132511 | 12 | 13 | 1.6 | 6.4 | 0.00 | 0.25 | 0.00 | 79 | 1014.3 |
| 20260506132010 | 12 | 38 | 1.6 | 6.4 | 0.00 | 0.25 | 0.00 | 79 | 1014.0 |
| 20260506131533 | 12 | 36 | 1.6 | 8.0 | 0.00 | 0.25 | 0.00 | 79 | 1013.9 |
| 20260506131010 | 12 | 16 | 3.2 | 9.7 | 0.00 | 0.25 | 0.00 | 79 | 1013.8 |
| 20260506130510 | 12 | 315 | 1.6 | 11.3 | 0.00 | 0.25 | 0.00 | 79 | 1013.8 |
| 20260506130012 | 12 | 350 | 3.2 | 11.3 | 0.00 | 0.25 | 0.00 | 79 | 1013.9 |
| 20260506125507 | 12 | 52 | 3.2 | 8.0 | 0.00 | 0.25 | 0.00 | 79 | 1013.9 |
| 20260506125006 | 12 | 20 | 3.2 | 8.0 | 0.00 | 0.25 | 0.00 | 78 | 1013.9 |
| 20260506124513 | 12 | 87 | 3.2 | 8.0 | 0.00 | 0.25 | 0.00 | 79 | 1013.6 |
| 20260506124013 | 12 | 32 | 3.2 | 12.9 | 0.00 | 0.25 | 0.00 | 78 | 1013.7 |
| 20260506123510 | 12 | 352 | 1.6 | 12.9 | 0.00 | 0.25 | 0.00 | 78 | 1013.5 |
| 20260506123021 | 12 | 59 | 3.2 | 11.3 | 0.00 | 0.25 | 0.00 | 78 | 1013.4 |
| 20260506122507 | 12 | 13 | 4.8 | 9.7 | 0.00 | 0.25 | 0.00 | 78 | 1013.5 |
| 20260506122012 | 12 | 45 | 1.6 | 9.7 | 0.00 | 0.25 | 0.00 | 78 | 1013.4 |
| 20260506121524 | 12 | 136 | 1.6 | 12.9 | 0.00 | 0.25 | 0.00 | 77 | 1013.3 |
| 20260506121009 | 12 | 296 | 1.6 | 12.9 | 0.00 | 0.25 | 0.00 | 77 | 1013.3 |
| 20260506120512 | 12 | 350 | 1.6 | 9.7 | 0.00 | 0.25 | 0.00 | 77 | 1013.4 |
| 20260506120028 | 13 | 278 | 3.2 | 9.7 | 0.00 | 0.25 | 0.00 | 76 | 1013.4 |
| 20260506115510 | 13 | 28 | 1.6 | 8.0 | 0.00 | 0.25 | 0.00 | 76 | 1013.3 |
| 20260506115011 | 13 | 65 | 1.6 | 14.5 | 0.00 | 0.25 | 0.00 | 77 | 1013.3 |
| 20260506114520 | 13 | 55 | 4.8 | 14.5 | 0.00 | 0.25 | 0.00 | 76 | 1013.0 |
| 20260506114007 | 13 | 301 | 4.8 | 9.7 | 0.00 | 0.25 | 0.00 | 76 | 1012.9 |
| 20260506113510 | 13 | 29 | 1.6 | 9.7 | 0.00 | 0.25 | 0.00 | 76 | 1012.9 |
| 20260506113031 | 13 | 82 | 3.2 | 8.0 | 0.00 | 0.25 | 0.00 | 76 | 1012.6 |
| 20260506112511 | 13 | 288 | 1.6 | 8.0 | 0.00 | 0.25 | 0.00 | 76 | 1012.5 |
| 20260506112009 | 13 | 52 | 1.6 | 9.7 | 0.00 | 0.25 | 0.00 | 76 | 1012.7 |
| 20260506111527 | 13 | 31 | 4.8 | 9.7 | 0.00 | 0.25 | 0.00 | 76 | 1012.8 |
| 20260506111010 | 13 | 62 | 3.2 | 9.7 | 0.00 | 0.25 | 0.00 | 76 | 1012.5 |
| 20260506110509 | 13 | 305 | 1.6 | 12.9 | 0.00 | 0.25 | 0.00 | 76 | 1012.1 |
| 20260506110024 | 13 | 360 | 3.2 | 14.5 | 0.00 | 0.25 | 0.00 | 75 | 1012.3 |
| 20260506105509 | 14 | 59 | 3.2 | 14.5 | 0.00 | 0.25 | 0.00 | 76 | 1012.2 |
| 20260506105010 | 14 | 266 | 1.6 | 12.9 | 0.00 | 0.25 | 0.00 | 77 | 1012.0 |
| 20260506104530 | 14 | 22 | 1.6 | 11.3 | 0.00 | 0.25 | 0.00 | 77 | 1011.9 |
| 20260506104009 | 14 | 351 | 3.2 | 11.3 | 0.00 | 0.25 | 0.00 | 72 | 1011.9 |
| 20260506103509 | 15 | 80 | 0.0 | 8.0 | 0.00 | 0.25 | 0.00 | 72 | 1011.6 |
| 20260506103015 | 15 | 321 | 1.6 | 8.0 | 0.00 | 0.25 | 0.00 | 73 | 1011.6 |
| 20260506102503 | 15 | 352 | 3.2 | 8.0 | 0.00 | 0.25 | 0.00 | 73 | 1011.5 |
| 20260506102004 | 15 | 55 | 1.6 | 6.4 | 0.00 | 0.25 | 0.00 | 73 | 1011.4 |
| 20260506101505 | 15 | 21 | 1.6 | 6.4 | 0.00 | 0.25 | 0.00 | 73 | 1011.4 |
| 20260506101002 | 15 | 53 | 0.0 | 8.0 | 0.00 | 0.25 | 0.00 | 73 | 1011.3 |
| 20260506100506 | 15 | 62 | 1.6 | 8.0 | 0.00 | 0.25 | 0.00 | 73 | 1011.1 |
| 20260506100009 | 15 | 269 | 1.6 | 8.0 | 0.00 | 0.25 | 0.00 | 73 | 1011.2 |
| 20260506095504 | 15 | 65 | 1.6 | 6.4 | 0.00 | 0.25 | 0.00 | 73 | 1011.1 |
| 20260506095004 | 15 | 76 | 3.2 | 6.4 | 0.00 | 0.25 | 0.00 | 73 | 1011.2 |
| 20260506094505 | 15 | 288 | 0.0 | 3.2 | 0.00 | 0.25 | 0.00 | 73 | 1011.1 |
| 20260506094004 | 15 | 304 | 1.6 | 8.0 | 0.00 | 0.25 | 0.00 | 74 | 1011.1 |
| 20260506093505 | 15 | 304 | 1.6 | 8.0 | 0.00 | 0.25 | 0.00 | 73 | 1011.0 |
| 20260506093004 | 15 | 232 | 3.2 | 6.4 | 0.00 | 0.25 | 0.00 | 73 | 1011.1 |
| 20260506092504 | 15 | 304 | 1.6 | 6.4 | 0.00 | 0.25 | 0.00 | 73 | 1011.1 |
| 20260506092003 | 15 | 315 | 1.6 | 6.4 | 0.00 | 0.25 | 0.00 | 73 | 1011.1 |
| 20260506091506 | 15 | 360 | 1.6 | 8.0 | 0.00 | 0.25 | 0.00 | 73 | 1011.0 |
| 20260506091004 | 15 | 33 | 3.2 | 8.0 | 0.00 | 0.25 | 0.00 | 73 | 1010.9 |
| 20260506090504 | 15 | 24 | 1.6 | 6.4 | 0.00 | 0.25 | 0.00 | 73 | 1011.0 |
| 20260506090006 | 15 | 17 | 1.6 | 6.4 | 0.00 | 0.25 | 0.00 | 74 | 1010.9 |
| 20260506085503 | 15 | 326 | 1.6 | 6.4 | 0.00 | 0.25 | 0.00 | 73 | 1010.8 |
| 20260506085006 | 15 | 41 | 1.6 | 6.4 | 0.00 | 0.25 | 0.00 | 73 | 1010.8 |
| 20260506084505 | 15 | 314 | 1.6 | 4.8 | 0.00 | 0.25 | 0.00 | 72 | 1010.7 |
| 20260506084007 | 15 | 360 | 1.6 | 4.8 | 0.00 | 0.25 | 0.00 | 73 | 1010.6 |
| 20260506083504 | 15 | 306 | 1.6 | 8.0 | 0.00 | 0.25 | 0.00 | 73 | 1010.6 |
| 20260506083006 | 16 | 39 | 1.6 | 8.0 | 0.00 | 0.25 | 0.00 | 74 | 1010.6 |
| 20260506082503 | 15 | 32 | 1.6 | 4.8 | 0.00 | 0.25 | 0.00 | 73 | 1010.5 |
| 20260506082005 | 15 | 57 | 0.0 | 6.4 | 0.00 | 0.25 | 0.00 | 74 | 1010.3 |
| 20260506081504 | 15 | 343 | 1.6 | 6.4 | 0.00 | 0.25 | 0.00 | 73 | 1010.2 |
| 20260506081003 | 15 | 45 | 0.0 | 3.2 | 0.00 | 0.25 | 0.00 | 73 | 1010.1 |
| 20260506080504 | 16 | 53 | 1.6 | 4.8 | 0.00 | 0.25 | 0.00 | 73 | 1010.2 |
| 20260506073506 | 16 | 348 | 0.0 | 4.8 | 0.00 | 0.25 | 0.00 | 73 | 1010.3 |
| 20260506073008 | 16 | 51 | 0.0 | 8.0 | 0.00 | 0.25 | 0.00 | 73 | 1010.6 |
| 20260506072504 | 16 | 275 | 3.2 | 8.0 | 0.00 | 0.25 | 0.00 | 73 | 1010.6 |
| 20260506072005 | 16 | 5 | 1.6 | 4.8 | 0.00 | 0.25 | 0.00 | 73 | 1010.6 |
| 20260506071507 | 16 | 322 | 1.6 | 8.0 | 0.00 | 0.25 | 0.00 | 73 | 1010.4 |
| 20260506071003 | 16 | 37 | 3.2 | 8.0 | 0.00 | 0.25 | 0.00 | 73 | 1010.4 |
| 20260506070503 | 16 | 66 | 0.0 | 6.4 | 0.00 | 0.25 | 0.00 | 73 | 1010.5 |
| 20260506062504 | 17 | 337 | 1.6 | 6.4 | 0.00 | 0.25 | 0.00 | 73 | 1010.3 |
| 20260506062006 | 17 | 53 | 0.0 | 6.4 | 0.00 | 0.25 | 0.00 | 73 | 1010.4 |
| 20260506061509 | 17 | 70 | 0.0 | 6.4 | 0.00 | 0.25 | 0.00 | 74 | 1010.3 |
| 20260506061005 | 17 | 56 | 1.6 | 9.7 | 0.00 | 0.25 | 0.00 | 74 | 1010.3 |
| 20260506060504 | 17 | 46 | 1.6 | 9.7 | 0.00 | 0.25 | 0.00 | 74 | 1010.4 |
| 20260506051005 | 18 | 65 | 3.2 | 6.4 | 0.00 | 0.25 | 0.00 | 73 | 1010.1 |
| 20260506050507 | 18 | 26 | 1.6 | 6.4 | 0.00 | 0.25 | 0.00 | 74 | 1010.2 |
| 20260506045005 | 18 | 277 | 1.6 | 12.9 | 0.00 | 0.25 | 0.25 | 74 | 1010.3 |
| 20260506044513 | 18 | 288 | 3.2 | 9.7 | 0.00 | 0.25 | 0.25 | 73 | 1010.2 |
| 20260506044004 | 18 | 279 | 3.2 | 11.3 | 0.00 | 0.25 | 0.25 | 73 | 1010.2 |
| 20260506043505 | 19 | 360 | 3.2 | 11.3 | 0.00 | 0.25 | 0.25 | 72 | 1010.2 |
| 20260506043013 | 20 | 302 | 1.6 | 8.0 | 0.00 | 0.25 | 0.25 | 73 | 1010.1 |
| 20260506042505 | 20 | 33 | 1.6 | 8.0 | 0.00 | 0.25 | 0.25 | 73 | 1009.9 |
| 20260506042006 | 20 | 55 | 1.6 | 6.4 | 0.00 | 0.25 | 0.25 | 72 | 1009.8 |
| 20260506041510 | 20 | 309 | 0.0 | 6.4 | 0.00 | 0.25 | 0.25 | 73 | 1009.8 |
| 20260506041007 | 20 | 311 | 1.6 | 6.4 | 0.00 | 0.25 | 0.25 | 73 | 1009.7 |
| 20260506040506 | 20 | 84 | 3.2 | 11.3 | 0.00 | 0.25 | 0.25 | 72 | 1009.4 |
| 20260506040014 | 20 | 5 | 3.2 | 11.3 | 0.00 | 0.25 | 0.25 | 72 | 1009.3 |
| 20260506035510 | 21 | 52 | 1.6 | 8.0 | 0.00 | 0.25 | 0.25 | 72 | 1009.5 |
| 20260506035009 | 21 | 337 | 1.6 | 9.7 | 0.00 | 0.25 | 0.25 | 72 | 1009.5 |
| 20260506034510 | 21 | 52 | 3.2 | 11.3 | 0.00 | 0.25 | 0.25 | 72 | 1009.3 |
| 20260506034002 | 21 | 346 | 3.2 | 11.3 | 0.00 | 0.25 | 0.25 | 71 | 1009.3 |
| 20260506033502 | 21 | 289 | 3.2 | 8.0 | 0.00 | 0.25 | 0.25 | 72 | 1009.1 |
| 20260506033002 | 21 | 15 | 3.2 | 14.5 | 0.00 | 0.25 | 0.25 | 72 | 1009.0 |
| 20260506032502 | 21 | 40 | 3.2 | 14.5 | 0.00 | 0.25 | 0.25 | 72 | 1009.0 |
| 20260506032005 | 21 | 96 | 1.6 | 9.7 | 0.00 | 0.25 | 0.25 | 72 | 1008.9 |
| 20260506031506 | 21 | 38 | 1.6 | 8.0 | 0.00 | 0.25 | 0.25 | 71 | 1008.7 |
| 20260506031004 | 22 | 352 | 1.6 | 8.0 | 0.00 | 0.25 | 0.25 | 71 | 1008.8 |
| 20260506030507 | 22 | 53 | 3.2 | 9.7 | 0.00 | 0.25 | 0.25 | 71 | 1008.8 |
| 20260506030024 | 22 | 346 | 1.6 | 9.7 | 0.00 | 0.25 | 0.25 | 70 | 1008.8 |
| 20260506025506 | 22 | 272 | 1.6 | 6.4 | 0.00 | 0.25 | 0.25 | 69 | 1008.5 |
| 20260506025007 | 22 | 307 | 1.6 | 8.0 | 0.00 | 0.25 | 0.25 | 69 | 1008.4 |
| 20260506024537 | 22 | 360 | 1.6 | 9.7 | 0.00 | 0.25 | 0.25 | 68 | 1008.1 |
| 20260506024009 | 22 | 339 | 3.2 | 8.0 | 0.00 | 0.25 | 0.25 | 68 | 1008.1 |
| 20260506023503 | 22 | 350 | 3.2 | 8.0 | 0.00 | 0.25 | 0.25 | 68 | 1007.9 |
| 20260506023010 | 23 | 55 | 1.6 | 12.9 | 0.00 | 0.25 | 0.25 | 68 | 1007.6 |
| 20260506022504 | 23 | 20 | 3.2 | 12.9 | 0.00 | 0.25 | 0.25 | 69 | 1007.6 |
| 20260506022002 | 23 | 42 | 1.6 | 8.0 | 0.00 | 0.25 | 0.25 | 69 | 1007.2 |
| 20260506021503 | 23 | 21 | 1.6 | 8.0 | 0.00 | 0.25 | 0.25 | 69 | 1007.0 |
| 20260506021006 | 23 | 74 | 1.6 | 8.0 | 0.00 | 0.25 | 0.25 | 69 | 1007.0 |
| 20260506020502 | 23 | 32 | 1.6 | 9.7 | 0.00 | 0.25 | 0.25 | 68 | 1007.0 |
| 20260506020010 | 23 | 287 | 1.6 | 9.7 | 0.00 | 0.25 | 0.25 | 68 | 1007.1 |
| 20260506015506 | 23 | 350 | 1.6 | 8.0 | 0.00 | 0.25 | 0.25 | 69 | 1006.8 |
| 20260506015007 | 23 | 352 | 1.6 | 8.0 | 0.00 | 0.25 | 0.25 | 69 | 1006.9 |
| 20260506014516 | 23 | 352 | 1.6 | 6.4 | 0.00 | 0.25 | 0.25 | 70 | 1007.0 |
| 20260506014006 | 23 | 46 | 3.2 | 6.4 | 0.00 | 0.25 | 0.25 | 70 | 1006.8 |
| 20260506013511 | 23 | 360 | 0.0 | 14.5 | 0.00 | 0.25 | 0.25 | 70 | 1006.5 |
| 20260506013032 | 24 | 23 | 3.2 | 14.5 | 0.00 | 0.25 | 0.25 | 69 | 1006.4 |
| 20260506012508 | 24 | 15 | 1.6 | 8.0 | 0.00 | 0.25 | 0.25 | 70 | 1006.5 |
| 20260506012004 | 24 | 46 | 1.6 | 8.0 | 0.00 | 0.25 | 0.25 | 69 | 1006.7 |
| 20260506011503 | 24 | 312 | 1.6 | 8.0 | 0.00 | 0.25 | 0.25 | 69 | 1006.8 |
| 20260506011007 | 25 | 86 | 1.6 | 6.4 | 0.00 | 0.25 | 0.25 | 70 | 1006.3 |
| 20260506010502 | 24 | 156 | 0.0 | 6.4 | 0.00 | 0.25 | 0.25 | 72 | 1006.0 |
| 20260506010010 | 24 | 26 | 1.6 | 6.4 | 0.10 | 0.25 | 0.25 | 74 | 1006.1 |
| 20260506005503 | 24 | 56 | 0.0 | 3.2 | 0.20 | 0.25 | 0.25 | 76 | 1005.6 |
| 20260506005006 | 24 | 360 | 1.6 | 3.2 | 0.25 | 0.25 | 0.25 | 74 | 1005.9 |
| 20260506004512 | 24 | 341 | 0.0 | 3.2 | 0.25 | 0.25 | 0.25 | 73 | 1005.9 |
| 20260506004008 | 23 | 317 | 1.6 | 3.2 | 0.25 | 0.25 | 0.25 | 75 | 1005.9 |
| 20260506003506 | 24 | 315 | 0.0 | 4.8 | 0.25 | 0.25 | 0.25 | 75 | 1006.0 |
| 20260506003017 | 24 | 67 | 0.0 | 11.3 | 0.25 | 0.25 | 0.25 | 74 | 1005.8 |
| 20260506002508 | 25 | 352 | 3.2 | 11.3 | 0.25 | 0.25 | 0.25 | 72 | 1006.0 |
| 20260506002010 | 25 | 344 | 1.6 | 16.1 | 0.25 | 0.25 | 0.25 | 75 | 1005.9 |
| 20260506001521 | 25 | 275 | 4.8 | 16.1 | 0.25 | 0.25 | 0.25 | 75 | 1005.8 |
| 20260506001009 | 25 | 310 | 1.6 | 3.2 | 0.25 | 0.25 | 0.25 | 82 | 1005.9 |
| 20260506000505 | 26 | 352 | 0.0 | 3.2 | 0.25 | 0.25 | 0.25 | 79 | 1005.5 |
| 20260506000007 | 27 | 54 | 1.6 | 8.0 | 0.15 | 0.15 | 0.15 | 76 | 1005.3 |
| 20260505235502 | 28 | 325 | 1.6 | 8.0 | 0.05 | 0.05 | 0.05 | 66 | 1005.3 |
| 20260505235005 | 28 | 153 | 1.6 | 6.4 | 0.00 | 0.00 | 0.00 | 55 | 1004.7 |
| 20260505234512 | 29 | 11 | 1.6 | 12.9 | 0.00 | 0.00 | 0.00 | 67 | 1005.0 |
| 20260505234008 | 29 | 27 | 1.6 | 12.9 | 0.00 | 0.00 | 0.00 | 67 | 1005.1 |
| 20260505233505 | 29 | 320 | 1.6 | 16.1 | 0.00 | 0.00 | 0.00 | 66 | 1004.8 |
| 20260505233020 | 29 | 170 | 6.4 | 16.1 | 0.00 | 0.00 | 0.00 | 65 | 1004.7 |
| 20260505232511 | 30 | 139 | 6.4 | 14.5 | 0.00 | 0.00 | 0.00 | 64 | 1004.8 |
| 20260505232007 | 30 | 147 | 3.2 | 16.1 | 0.00 | 0.00 | 0.00 | 63 | 1004.7 |
| 20260505231519 | 31 | 292 | 4.8 | 16.1 | 0.00 | 0.00 | 0.00 | 62 | 1004.6 |
| 20260505231009 | 31 | 171 | 3.2 | 14.5 | 0.00 | 0.00 | 0.00 | 61 | 1004.7 |
| 20260505230508 | 31 | 168 | 4.8 | 12.9 | 0.00 | 0.00 | 0.00 | 60 | 1004.5 |
| 20260505230040 | 32 | 167 | 4.8 | 12.9 | 0.00 | 0.00 | 0.00 | 58 | 1004.5 |
| 20260505225511 | 32 | 154 | 3.2 | 12.9 | 0.00 | 0.00 | 0.00 | 58 | 1004.4 |
| 20260505225003 | 31 | 150 | 3.2 | 9.7 | 0.00 | 0.00 | 0.00 | 58 | 1004.5 |
| 20260505224509 | 31 | 273 | 1.6 | 14.5 | 0.00 | 0.00 | 0.00 | 58 | 1004.5 |
| 20260505224011 | 32 | 111 | 3.2 | 14.5 | 0.00 | 0.00 | 0.00 | 56 | 1004.6 |
| 20260505223505 | 32 | 150 | 4.8 | 12.9 | 0.00 | 0.00 | 0.00 | 51 | 1004.6 |
| 20260505223012 | 32 | 178 | 3.2 | 12.9 | 0.00 | 0.00 | 0.00 | 54 | 1004.4 |
| 20260505222506 | 32 | 254 | 3.2 | 12.9 | 0.00 | 0.00 | 0.00 | 51 | 1004.4 |
| 20260505222009 | 32 | 246 | 1.6 | 14.5 | 0.00 | 0.00 | 0.00 | 52 | 1004.5 |
| 20260505221516 | 32 | 230 | 3.2 | 14.5 | 0.00 | 0.00 | 0.00 | 51 | 1004.6 |
| 20260505221006 | 32 | 157 | 3.2 | 14.5 | 0.00 | 0.00 | 0.00 | 50 | 1004.6 |
| 20260505220506 | 32 | 242 | 1.6 | 14.5 | 0.00 | 0.00 | 0.00 | 52 | 1004.5 |
| 20260505220023 | 32 | 316 | 1.6 | 9.7 | 0.00 | 0.00 | 0.00 | 51 | 1004.3 |
| 20260505215509 | 33 | 199 | 1.6 | 12.9 | 0.00 | 0.00 | 0.00 | 50 | 1004.5 |
| 20260505215009 | 32 | 180 | 1.6 | 12.9 | 0.00 | 0.00 | 0.00 | 49 | 1004.6 |
| 20260505214524 | 32 | 294 | 1.6 | 9.7 | 0.00 | 0.00 | 0.00 | 50 | 1004.6 |
| 20260505214006 | 32 | 148 | 3.2 | 14.5 | 0.00 | 0.00 | 0.00 | 49 | 1004.6 |
| 20260505213506 | 32 | 133 | 4.8 | 14.5 | 0.00 | 0.00 | 0.00 | 51 | 1004.6 |
| 20260505213009 | 32 | 231 | 4.8 | 14.5 | 0.00 | 0.00 | 0.00 | 50 | 1004.7 |
| 20260505212509 | 32 | 329 | 3.2 | 11.3 | 0.00 | 0.00 | 0.00 | 50 | 1004.6 |
| 20260505212007 | 33 | 105 | 3.2 | 9.7 | 0.00 | 0.00 | 0.00 | 51 | 1004.7 |
| 20260505211514 | 32 | 46 | 3.2 | 11.3 | 0.00 | 0.00 | 0.00 | 51 | 1004.8 |
| 20260505211007 | 32 | 194 | 3.2 | 11.3 | 0.00 | 0.00 | 0.00 | 51 | 1004.8 |
| 20260505210506 | 32 | 217 | 3.2 | 14.5 | 0.00 | 0.00 | 0.00 | 51 | 1004.9 |
| 20260505210020 | 32 | 307 | 3.2 | 17.7 | 0.00 | 0.00 | 0.00 | 52 | 1004.9 |
| 20260505205507 | 32 | 350 | 3.2 | 19.3 | 0.00 | 0.00 | 0.00 | 51 | 1005.0 |
| 20260505205013 | 33 | 290 | 4.8 | 22.5 | 0.00 | 0.00 | 0.00 | 52 | 1005.0 |
| 20260505204525 | 32 | 360 | 3.2 | 22.5 | 0.00 | 0.00 | 0.00 | 53 | 1005.1 |
| 20260505204010 | 31 | 260 | 3.2 | 16.1 | 0.00 | 0.00 | 0.00 | 53 | 1005.3 |
| 20260505203510 | 32 | 290 | 4.8 | 16.1 | 0.00 | 0.00 | 0.00 | 51 | 1005.3 |
| 20260505203040 | 32 | 296 | 3.2 | 11.3 | 0.00 | 0.00 | 0.00 | 52 | 1005.2 |
| 20260505202503 | 32 | 273 | 3.2 | 17.7 | 0.00 | 0.00 | 0.00 | 54 | 1005.3 |
| 20260505202008 | 32 | 360 | 3.2 | 20.9 | 0.00 | 0.00 | 0.00 | 53 | 1005.3 |
| 20260505201513 | 32 | 219 | 4.8 | 20.9 | 0.00 | 0.00 | 0.00 | 53 | 1005.4 |
| 20260505201007 | 32 | 265 | 3.2 | 16.1 | 0.00 | 0.00 | 0.00 | 55 | 1005.4 |
| 20260505200506 | 31 | 178 | 3.2 | 17.7 | 0.00 | 0.00 | 0.00 | 56 | 1005.5 |
| 20260505200027 | 31 | 101 | 4.8 | 17.7 | 0.00 | 0.00 | 0.00 | 56 | 1005.5 |
| 20260505195506 | 31 | 293 | 4.8 | 19.3 | 0.00 | 0.00 | 0.00 | 56 | 1005.4 |
| 20260505195008 | 31 | 230 | 4.8 | 19.3 | 0.00 | 0.00 | 0.00 | 60 | 1005.4 |
| 20260505194523 | 31 | 140 | 4.8 | 14.5 | 0.00 | 0.00 | 0.00 | 58 | 1005.4 |
| 20260505194009 | 31 | 240 | 3.2 | 14.5 | 0.00 | 0.00 | 0.00 | 59 | 1005.6 |
| 20260505193509 | 30 | 105 | 4.8 | 16.1 | 0.00 | 0.00 | 0.00 | 58 | 1005.6 |
| 20260505193023 | 30 | 174 | 4.8 | 16.1 | 0.00 | 0.00 | 0.00 | 59 | 1005.5 |
| 20260505192507 | 30 | 171 | 3.2 | 17.7 | 0.00 | 0.00 | 0.00 | 58 | 1005.6 |
| 20260505192004 | 30 | 270 | 3.2 | 17.7 | 0.00 | 0.00 | 0.00 | 59 | 1005.7 |
| 20260505191512 | 30 | 212 | 6.4 | 16.1 | 0.00 | 0.00 | 0.00 | 61 | 1005.5 |
| 20260505191008 | 30 | 257 | 3.2 | 17.7 | 0.00 | 0.00 | 0.00 | 61 | 1005.5 |
| 20260505190511 | 30 | 119 | 6.4 | 17.7 | 0.00 | 0.00 | 0.00 | 61 | 1005.6 |
| 20260505190021 | 30 | 276 | 4.8 | 17.7 | 0.00 | 0.00 | 0.00 | 62 | 1005.6 |
| 20260505185511 | 30 | 274 | 3.2 | 17.7 | 0.00 | 0.00 | 0.00 | 62 | 1005.7 |
| 20260505185006 | 29 | 216 | 4.8 | 14.5 | 0.00 | 0.00 | 0.00 | 64 | 1005.7 |
| 20260505184524 | 29 | 253 | 4.8 | 16.1 | 0.00 | 0.00 | 0.00 | 64 | 1005.7 |
| 20260505184009 | 28 | 159 | 3.2 | 16.1 | 0.00 | 0.00 | 0.00 | 64 | 1005.9 |
| 20260505183509 | 28 | 165 | 6.4 | 16.1 | 0.00 | 0.00 | 0.00 | 65 | 1006.1 |
| 20260505183026 | 28 | 219 | 3.2 | 16.1 | 0.00 | 0.00 | 0.00 | 66 | 1006.0 |
| 20260505182502 | 28 | 279 | 1.6 | 16.1 | 0.00 | 0.00 | 0.00 | 66 | 1005.9 |
| 20260505182006 | 28 | 264 | 3.2 | 12.9 | 0.00 | 0.00 | 0.00 | 65 | 1006.0 |
| 20260505181508 | 28 | 111 | 4.8 | 12.9 | 0.00 | 0.00 | 0.00 | 65 | 1006.0 |
| 20260505181006 | 28 | 148 | 3.2 | 11.3 | 0.00 | 0.00 | 0.00 | 65 | 1006.0 |
| 20260505180510 | 28 | 221 | 3.2 | 12.9 | 0.00 | 0.00 | 0.00 | 65 | 1006.0 |
| 20260505180011 | 28 | 157 | 3.2 | 14.5 | 0.00 | 0.00 | 0.00 | 67 | 1006.2 |
| 20260505175510 | 28 | 179 | 3.2 | 14.5 | 0.00 | 0.00 | 0.00 | 66 | 1006.1 |
| 20260505175008 | 28 | 155 | 3.2 | 16.1 | 0.00 | 0.00 | 0.00 | 65 | 1006.0 |
| 20260505174518 | 28 | 217 | 3.2 | 16.1 | 0.00 | 0.00 | 0.00 | 65 | 1006.1 |
| 20260505174007 | 28 | 173 | 4.8 | 11.3 | 0.00 | 0.00 | 0.00 | 65 | 1006.1 |
| 20260505173514 | 28 | 42 | 3.2 | 19.3 | 0.00 | 0.00 | 0.00 | 65 | 1006.1 |
| 20260505173036 | 28 | 292 | 4.8 | 19.3 | 0.00 | 0.00 | 0.00 | 66 | 1006.0 |
| 20260505172507 | 28 | 264 | 3.2 | 17.7 | 0.00 | 0.00 | 0.00 | 67 | 1006.0 |
| 20260505172012 | 27 | 238 | 4.8 | 16.1 | 0.00 | 0.00 | 0.00 | 65 | 1006.1 |
| 20260505171506 | 27 | 198 | 4.8 | 20.9 | 0.00 | 0.00 | 0.00 | 66 | 1006.1 |
| 20260505171005 | 27 | 165 | 6.4 | 20.9 | 0.00 | 0.00 | 0.00 | 66 | 1006.1 |
| 20260505170505 | 27 | 252 | 6.4 | 27.4 | 0.00 | 0.00 | 0.00 | 66 | 1006.2 |
| 20260505170013 | 27 | 241 | 6.4 | 27.4 | 0.00 | 0.00 | 0.00 | 66 | 1006.2 |
| 20260505165506 | 27 | 82 | 3.2 | 17.7 | 0.00 | 0.00 | 0.00 | 68 | 1006.2 |
| 20260505165007 | 26 | 315 | 3.2 | 19.3 | 0.00 | 0.00 | 0.00 | 69 | 1006.1 |
| 20260505164535 | 27 | 245 | 6.4 | 19.3 | 0.00 | 0.00 | 0.00 | 68 | 1006.2 |
| 20260505164008 | 27 | 336 | 6.4 | 16.1 | 0.00 | 0.00 | 0.00 | 68 | 1006.2 |
| 20260505163508 | 26 | 169 | 4.8 | 14.5 | 0.00 | 0.00 | 0.00 | 1006.2 | |
| 20260505163023 | 26 | 223 | 6.4 | 17.7 | 0.00 | 0.00 | 0.00 | 68 | 1006.3 |
| 20260505162508 | 27 | 152 | 4.8 | 25.7 | 0.00 | 0.00 | 0.00 | 68 | 1006.1 |
| 20260505162012 | 27 | 259 | 8.0 | 19.3 | 0.00 | 0.00 | 0.00 | 68 | 1006.1 |
| 20260505161526 | 26 | 168 | 6.4 | 17.7 | 0.00 | 0.00 | 0.00 | 69 | 1005.9 |
| 20260505161010 | 26 | 210 | 6.4 | 19.3 | 0.00 | 0.00 | 0.00 | 70 | 1005.9 |
| 20260505160508 | 26 | 172 | 6.4 | 19.3 | 0.00 | 0.00 | 0.00 | 70 | 1006.0 |
| 20260505153022 | 25 | 171 | 4.8 | 20.9 | 0.00 | 0.00 | 0.00 | 72 | 1006.0 |
| 20260505152508 | 25 | 54 | 4.8 | 20.9 | 0.00 | 0.00 | 0.00 | 72 | 1006.1 |
| 20260505152009 | 25 | 99 | 3.2 | 20.9 | 0.00 | 0.00 | 0.00 | 74 | 1006.1 |
| 20260505151524 | 25 | 171 | 4.8 | 20.9 | 0.00 | 0.00 | 0.00 | 74 | 1006.2 |
| 20260505151009 | 25 | 260 | 6.4 | 20.9 | 0.00 | 0.00 | 0.00 | 74 | 1006.2 |
| 20260505150510 | 25 | 202 | 3.2 | 14.5 | 0.00 | 0.00 | 0.00 | 74 | 1006.2 |
| 20260505140511 | 23 | 349 | 3.2 | 14.5 | 0.00 | 0.00 | 0.00 | 78 | 1006.2 |